Hampton, VA

8:02 AM EST on December 09, 2016 (GMT -0500)
Langley Air Force Base

Weather History for KLFI - March, 2013

Change the Weather History Date:

Tuesday, March 26, 2013

  Actual Average Record
Temperature  
Mean Temperature 40 °F -  
Max Temperature 48 °F 58 °F 84 °F (1939)
Min Temperature 33 °F 42 °F 22 °F (1940)
Degree Days  
Heating Degree Days 24    
Moisture  
Dew Point 31 °F    
Average Humidity 63    
Maximum Humidity 82    
Minimum Humidity 50    
Precipitation  
Precipitation 0.00 in - - ()
Sea Level Pressure  
Sea Level Pressure 29.88 in    
Wind  
Wind Speed 8 mph (WNW)    
Max Wind Speed 18 mph    
Max Gust Speed 20 mph    
Visibility 10 miles    
Events Rain    
Averages and records for this station are not official NWS values.
T = Trace of Precipitation, MM = Missing Value Source: NWS Daily Summary

Daily Weather History Graph

Daily Weather History Graph

Search for Another Location

Airport or City:

Trip Planner

Search our weather history database for the weather conditions in past years. The results will help you decide how hot, cold, wet, or windy it might be!

Date:

Astronomy

Mar. 26, 2013 Rise Set
Actual Time 6:59 AM EDT 7:22 PM EDT
Civil Twilight 6:33 AM EDT 7:48 PM EDT
Nautical Twilight 6:03 AM EDT 8:19 PM EDT
Astronomical Twilight 5:32 AM EDT 8:50 PM EDT
Moon 6:56 PM EDT (3/26) 6:14 AM EDT (3/26)
Length of Visible Light 13h 15m
Length of Day
12h 23m
Waxing Gibbous, 99% of the Moon is Illuminated
Mar 26
Waxing Gibbous
Mar 27
Full
Apr 3
Last Quarter
Apr 10
New
Apr 18
First Quarter

Hourly Weather History & Observations

Time (EDT) Temp. Windchill Dew Point Humidity Pressure Visibility Wind Dir Wind Speed Gust Speed Precip Events Conditions
12:55 AM 38.8 °F 34.6 °F 33.6 °F 82% 29.75 in 10.0 mi West 5.8 mph - N/A   Overcast
1:55 AM 39.0 °F 34.8 °F 33.8 °F 82% 29.75 in 10.0 mi WSW 5.8 mph - N/A   Overcast
2:55 AM 39.2 °F 33.0 °F 31.8 °F 75% 29.76 in 10.0 mi West 9.2 mph - N/A   Overcast
3:55 AM 39.0 °F 34.0 °F 30.7 °F 72% 29.78 in 10.0 mi WNW 6.9 mph - N/A   Overcast
4:55 AM 37.8 °F 31.8 °F 28.4 °F 69% 29.78 in 10.0 mi WNW 8.1 mph - N/A   Partly Cloudy
5:55 AM 35.8 °F 29.4 °F 27.9 °F 73% 29.81 in 10.0 mi West 8.1 mph - N/A   Clear
6:55 AM 33.4 °F 29.1 °F 28.0 °F 81% 29.83 in 10.0 mi West 4.6 mph - N/A   Clear
7:55 AM 35.6 °F 29.2 °F 29.3 °F 78% 29.85 in 10.0 mi WSW 8.1 mph - N/A   Clear
8:55 AM 40.3 °F 34.9 °F 28.9 °F 64% 29.86 in 10.0 mi WNW 8.1 mph - N/A   Clear
9:55 AM 43.5 °F 38.9 °F 30.4 °F 60% 29.87 in 10.0 mi NW 8.1 mph 17.3 mph N/A   Clear
10:55 AM 44.6 °F 36.9 °F 29.5 °F 55% 29.88 in 10.0 mi NW 18.4 mph - N/A   Scattered Clouds
11:55 AM 45.7 °F 41.0 °F 30.0 °F 54% 29.89 in 10.0 mi NW 9.2 mph - N/A   Overcast
12:55 PM 46.8 °F - 30.6 °F 53% 29.90 in 10.0 mi NNW 8.1 mph 18.4 mph N/A   Mostly Cloudy
1:55 PM 46.0 °F 41.4 °F 29.5 °F 52% 29.89 in 10.0 mi WNW 9.2 mph - N/A   Overcast
2:55 PM 48.0 °F - 30.6 °F 51% 29.88 in 10.0 mi WSW 5.8 mph - N/A   Mostly Cloudy
3:26 PM 46.4 °F 42.9 °F 30.2 °F 53% 29.88 in 10.0 mi WNW 6.9 mph - N/A Rain Light Rain
3:44 PM 46.4 °F 40.1 °F 32.0 °F 57% 29.88 in 10.0 mi West 15.0 mph - N/A   Mostly Cloudy
3:55 PM 47.3 °F - 31.5 °F 54% 29.88 in 10.0 mi West 10.4 mph - 0.00 in   Overcast
4:09 PM 48.2 °F - 30.2 °F 50% 29.89 in 10.0 mi WNW 10.4 mph - N/A Rain Light Rain
4:25 PM 46.4 °F 40.7 °F 30.2 °F 53% 29.89 in 10.0 mi West 12.7 mph - N/A   Mostly Cloudy
4:55 PM 47.3 °F - 31.3 °F 54% 29.90 in 10.0 mi NW 9.2 mph - 0.00 in   Overcast
5:13 PM 46.4 °F 42.9 °F 33.8 °F 62% 29.90 in 10.0 mi NW 6.9 mph - N/A   Overcast
5:40 PM 46.4 °F 44.3 °F 32.0 °F 57% 29.91 in 10.0 mi North 4.6 mph - N/A Rain Light Rain
5:55 PM 45.3 °F 41.1 °F 32.4 °F 61% 29.92 in 10.0 mi NW 8.1 mph 19.6 mph 0.00 in Rain Light Rain
6:03 PM 44.6 °F 38.8 °F 33.8 °F 66% 29.92 in 10.0 mi NW 11.5 mph - N/A   Overcast
6:55 PM 45.7 °F 43.4 °F 30.6 °F 56% 29.94 in 10.0 mi WNW 4.6 mph - 0.00 in   Overcast
7:55 PM 44.2 °F 41.8 °F 31.8 °F 62% 29.96 in 10.0 mi West 4.6 mph - N/A   Overcast
8:55 PM 43.9 °F 40.5 °F 30.7 °F 60% 29.98 in 10.0 mi WNW 5.8 mph - N/A   Overcast
9:55 PM 40.3 °F 36.3 °F 29.3 °F 65% 30.00 in 10.0 mi WNW 5.8 mph - N/A   Clear
10:55 PM 41.0 °F 36.4 °F 27.9 °F 60% 30.01 in 10.0 mi WNW 6.9 mph - N/A   Clear
11:55 PM 37.6 °F 32.3 °F 28.0 °F 68% 30.01 in 10.0 mi West 6.9 mph - N/A   Clear